Flag for Austria Weather past 2 weeks in Hartberg, Styria, Austria

Now
63 °F

Partly sunny.


Feels Like: 63 °F
Forecast: 45 / 65 °F
Wind: 6 mph from Southwest

Location: Graz-Thalerhof-Flughafen

Current Time: Sep 16, 2014 at 2:31:53 PM

Latest Report: Sep 16, 2014 at 1:50 PM


Visibility: N/A

Pressure: 30.09 "Hg

Humidity: 83%

Dew point: 57 °F

Location of HartbergLocation

Historic Weather in Hartberg — Graph

°F

Hartberg temperature yesterday

Maximum temperature yesterday: 66 °F (at 3:20 PM)
Minimum temperature yesterday: 54 °F (at 4:20 AM)
Average temperature yesterday: 59 °F

Past Weeks' High & Low Weather Summary

 TemperatureHumidityPressure
High77 °F (Sep 9, 12:50 PM)100% (Sep 3, 5:50 AM)30.09 "Hg (Sep 3, 5:50 AM)
Low54 °F (Sep 3, 5:50 AM)51% (Sep 9, 1:20 PM)29.83 "Hg (Sep 12, 12:20 AM)
Average61 °F86%29.99 "Hg
* Reported Sep 1 1:20 PM — Sep 16 1:20 PM, Hartberg, Weather by CustomWeather, © 2014

Note: Actual official high and low records may vary slightly from our data, if they occured in-between our weather recording intervals... More about our weather records

Advertising

Hartberg weather history for previous 24 hours

 ConditionsComfort  
Time TempWeatherWind HumidityBarometerVisibility
1:20 PM
Sep 16
64 °FPartly sunny.6 mph73%30.09 "HgN/A
12:50 PM64 °FBroken clouds.6 mph78%30.09 "HgN/A
12:20 PM64 °FPartly sunny.5 mph78%30.09 "HgN/A
11:50 AM64 °FPartly sunny.5 mph78%30.09 "HgN/A
11:20 AM63 °FPartly sunny.3 mph83%30.09 "HgN/A
10:50 AM63 °FPartly sunny.3 mph83%30.09 "HgN/A
10:20 AM63 °FBroken clouds.3 mph83%30.09 "HgN/A
9:50 AM61 °FBroken clouds.2 mph88%30.09 "HgN/A
9:20 AM61 °FBroken clouds.2 mph88%30.09 "HgN/A
8:50 AM59 °FPartly sunny.2 mph94%30.09 "HgN/A
8:20 AM59 °FPartly sunny.2 mph94%30.09 "HgN/A
7:50 AM57 °FBroken clouds.2 mph100%30.07 "Hg5 mi
7:20 AM55 °FPartly cloudy.2 mph100%30.07 "Hg4 mi
6:50 AM55 °FCool.3 mph100%30.07 "Hg2 mi
6:20 AM57 °FCool.3 mph94%30.07 "Hg5 mi
5:50 AM57 °FPassing clouds.3 mph94%30.07 "Hg4 mi
5:20 AM57 °FPartly cloudy.3 mph100%30.07 "Hg5 mi
4:50 AM57 °FPartly cloudy.3 mph100%30.07 "Hg5 mi
4:20 AM59 °FPartly cloudy.2 mph94%30.07 "Hg5 mi
3:50 AM59 °FPartly cloudy.3 mph94%30.07 "Hg5 mi
3:20 AM59 °FPassing clouds.2 mph94%30.07 "Hg4 mi
2:50 AM59 °FPartly cloudy.2 mph94%30.07 "Hg5 mi
2:20 AM59 °FPartly cloudy.2 mph94%30.07 "Hg5 mi
1:50 AM59 °FPartly cloudy.1 mph94%30.07 "Hg5 mi
1:20 AM59 °FPassing clouds.3 mph94%30.07 "Hg4 mi
12:50 AM57 °FPassing clouds.5 mph100%30.07 "Hg4 mi
12:20 AM59 °FPassing clouds.3 mph100%30.07 "Hg4 mi
11:50 PM
Sep 15
59 °FPassing clouds.3 mph100%30.07 "Hg4 mi
11:20 PM59 °FRain showers. Passing clouds.3 mph100%30.07 "Hg4 mi
10:50 PM59 °FSprinkles. Passing clouds.3 mph100%30.07 "Hg6 mi
10:20 PM59 °FRain showers. Partly cloudy.1 mph100%30.07 "Hg4 mi
9:50 PM61 °FSprinkles. Partly cloudy.2 mph88%30.07 "HgN/A
9:20 PM61 °FPassing clouds.2 mph88%30.07 "HgN/A
8:50 PM59 °FPassing clouds.1 mph94%30.07 "HgN/A
8:20 PM59 °FPartly cloudy.2 mph94%30.07 "HgN/A
7:50 PM61 °FPartly sunny.2 mph88%30.07 "HgN/A
7:20 PM63 °FBroken clouds.2 mph83%30.04 "HgN/A
6:50 PM63 °FBroken clouds.3 mph88%30.04 "HgN/A
6:20 PM63 °FBroken clouds.6 mph83%30.04 "HgN/A
5:50 PM64 °FPartly sunny.5 mph78%30.04 "HgN/A
5:20 PM64 °FPartly sunny.6 mph78%30.04 "HgN/A
4:50 PM66 °FBroken clouds.1 mph73%30.04 "HgN/A
4:20 PM66 °FBroken clouds.3 mph68%30.04 "HgN/A
3:50 PM64 °FBroken clouds.3 mph78%30.04 "HgN/A
3:20 PM66 °FBroken clouds.2 mph73%30.04 "HgN/A
2:50 PM64 °FBroken clouds.3 mph78%30.04 "HgN/A
2:20 PM63 °FPartly sunny.2 mph83%30.07 "HgN/A
Weather by CustomWeather, © 2014

See weather overviewHow to use our weather pages